Location: Saint-Usage
(47.1052°N, 5.2587°E)
Time: 04:44:06
(UTC+02:00)

Nauka - Pass Details

Date: 26 September 2021
Orbit: 417 x 423 km, 51.6° (Epoch: 26 October)

Event Time Altitude Azimuth Distance (km) Brightness Sun altitude
Rises 22:34:23 0° 295° (WNW) 2,368 ? -30.7°
Reaches altitude 10° 22:36:29 10° 296° (WNW) 1,503 ? -31.0°
Enters shadow 22:36:51 13° 296° (WNW) 1,356 ? -31.0°
